Погода в Шугурове

Россия / Пензенская область     53°24′39″N   46°28′27″E
темп.,
°C
ветер,
м/с
пор.,
м/с
влажн.,
%
обл.,
%
осадки,
мм/ч
давл.,
гПа
погр.,
м
18 апреля, вс
вс1800:00+8в5126844 0.0 1019316
03:00+8св3472100 0.1 1020123
06:00+7всв377195 0.1 1020233
09:00+9всв576097 0.2 1019416
12:00+10всв3662100 0.4 1020738
15:00+11св2564100 0.5 1020358
18:00+9ссв3770100 0.0 1020217
21:00+9св4962100 0.0 1020320
19 апреля, пн
пн1900:00+8всв5966100 0.4 1021493
03:00+6всв61279100 1.4 1021514
06:00+4всв71371100 0.6 1022599
09:00+5всв71167100 0.8 1022768
12:00+5всв71172100 0.4 1022830
15:00+7в71071100 0.9 10221059
18:00+6всв71277100 0.3 1023884
21:00+5в81373100 0.3 1024823
20 апреля, вт
вт2000:00+3в7137496 0.0 1025690
03:00+3вюв71480100 0.0 1026706
06:00+3вюв7138191 0.0 1026815
09:00+4вюв9137161 0.0 1027804
12:00+8вюв10125851 0.0 10261129
15:00+9вюв9125357 0.0 10251367
18:00+8вюв91458100 0.0 10241201
21:00+6вюв101757100 0.0 10231030
21 апреля, ср
ср2100:00+4вюв101956100 0.0 1023870
03:00+4юв101958100 0.1 1022797
06:00+3юв102071100 1.0 1021753
09:00+2юв92085100 3.6 1021808
12:00+2юв91890100 0.0 1022773
15:00+3юв81690100 0.0 1023754
18:00+3ююв71593100 0.0 1024630
21:00+3ююв61396100 0.1 1024496
22 апреля, чт
чт2200:00+3ююв61297100 0.1 1025424
03:00+4ююв51098100 0.1 1025389
06:00+4ююв51198100 0.4 1026412
09:00+5ююв4997100 0.8 1026409
12:00+6ююв4896100 0.0 1027504
15:00+6ююв4793100 0.0 1027434
18:00+6юв5893100 0.0 1028407
21:00+4юв3696100 0.1 1029349